Location: Unspecified
(48.2082°N, 0.0000°E)
Time: 03:24:26
(UTC+00:00)

Vanguard 1 - Pass Details

Date: 30 June 2019
Orbit: 653 x 3830 km, 34.3° (Epoch: 18 July)

Event Time Altitude Azimuth Distance (km) Brightness Sun altitude
Rises 06:14:05 0° 275° (W) 6,818 13.8 18.8°
Reaches altitude 10° 06:20:34 10° 263° (W) 5,191 13.2 19.8°
Maximum altitude 06:29:44 21° 222° (SW) 3,343 12.5 21.3°
Drops below altitude 10° 06:36:03 10° 176° (S) 3,408 12.8 22.3°
Sets 06:39:13 0° 160° (SSE) 3,998 13.3 22.8°
